Weather History for Lexington, NC

Change the Weather History Date:

Tuesday, October 23, 2012

  Actual Average (KINT) Record (KINT)
Temperature  
Mean Temperature 60 °F -  
Max Temperature 77 °F 66 °F 81 °F (2001)
Min Temperature 42 °F 46 °F 25 °F (1974)
Degree Days  
Heating Degree Days 6    
Growing Degree Days 10 (Base 50)    
Moisture  
Dew Point 49 °F    
Average Humidity 77    
Maximum Humidity 100    
Minimum Humidity 34    
Precipitation  
Precipitation 0.00 in - - ()
Sea Level Pressure  
Sea Level Pressure 30.16 in    
Wind  
Wind Speed 1 mph (SSW)    
Max Wind Speed 7 mph    
Max Gust Speed -    
Visibility 8 miles    
Events      
Averages and records for this station are not official NWS values.
T = Trace of Precipitation, MM = Missing Value Source: NWS Daily Summary

Daily Weather History Graph

Daily Weather History Graph

Search for Another Location

Airport:

Trip Planner

Search our weather history database for the weather conditions in past years. The results will help you decide how hot, cold, wet, or windy it might be!

Date:

Astronomy

Oct. 23, 2012 Rise Set
Actual Time 7:35 AM EDT 6:35 PM EDT
Civil Twilight 7:09 AM EDT 7:01 PM EDT
Nautical Twilight 6:39 AM EDT 7:30 PM EDT
Astronomical Twilight 6:09 AM EDT 8:00 PM EDT
Moon 3:07 PM EDT (10/23) 1:37 AM EDT (10/23)
Length of Visible Light 11h 51m
Length of Day
10h 59m
Waxing Gibbous, 66% of the Moon is Illuminated
Oct 23
Waxing Gibbous
Oct 29
Full
Nov 6
Last Quarter
Nov 13
New
Nov 20
First Quarter

Hourly Weather History & Observations

Time (EDT) Temp. Dew Point Humidity Pressure Visibility Wind Dir Wind Speed Gust Speed Precip Events Conditions
12:15 AM 50.0 °F 50.0 °F 100% 30.19 in 10.0 mi Calm Calm - N/A   Unknown
12:35 AM 48.2 °F 48.2 °F 100% 30.18 in 7.0 mi Calm Calm - N/A   Unknown
12:55 AM 48.2 °F 48.2 °F 100% 30.19 in 7.0 mi Calm Calm - N/A   Unknown
1:15 AM 48.2 °F 48.2 °F 100% 30.19 in 7.0 mi Calm Calm - N/A   Unknown
1:35 AM 46.4 °F 46.4 °F 100% 30.18 in 5.0 mi Calm Calm - N/A   Mist
1:55 AM 46.4 °F 46.4 °F 100% 30.17 in 5.0 mi Calm Calm - N/A   Mist
2:15 AM 46.4 °F 46.4 °F 100% 30.17 in 4.0 mi Calm Calm - N/A   Mist
2:55 AM 46.4 °F 46.4 °F 100% 30.16 in 7.0 mi Calm Calm - N/A   Unknown
3:15 AM 46.4 °F 46.4 °F 100% 30.16 in 4.0 mi Calm Calm - N/A   Mist
3:35 AM 46.4 °F 46.4 °F 100% 30.16 in 4.0 mi Calm Calm - N/A   Mist
3:55 AM 44.6 °F 44.6 °F 100% 30.16 in 4.0 mi Calm Calm - N/A   Mist
4:15 AM 44.6 °F 44.6 °F 100% 30.16 in 5.0 mi Calm Calm - N/A   Mist
4:55 AM 44.6 °F 44.6 °F 100% 30.16 in 4.0 mi Calm Calm - N/A   Mist
5:15 AM 44.6 °F 44.6 °F 100% 30.16 in 2.5 mi Calm Calm - N/A   Mist
5:55 AM 44.6 °F 44.6 °F 100% 30.18 in 5.0 mi Calm Calm - N/A   Mist
6:15 AM 44.6 °F 44.6 °F 100% 30.18 in 4.0 mi Calm Calm - N/A   Mist
6:35 AM 42.8 °F 42.8 °F 100% 30.18 in 5.0 mi Calm Calm - N/A   Mist
6:55 AM 42.8 °F 42.8 °F 100% 30.18 in 10.0 mi Calm Calm - N/A   Unknown
7:35 AM 42.8 °F 42.8 °F 100% 30.19 in 5.0 mi Calm Calm - N/A   Mist
7:55 AM 42.8 °F 42.8 °F 100% 30.19 in 10.0 mi Calm Calm - N/A   Unknown
8:35 AM 46.4 °F 46.4 °F 100% 30.20 in 4.0 mi Calm Calm - N/A   Mist
8:55 AM 50.0 °F 50.0 °F 100% 30.21 in 5.0 mi Calm Calm - N/A   Mist
9:15 AM 51.8 °F 51.8 °F 100% 30.20 in 10.0 mi Calm Calm - N/A   Unknown
9:35 AM 55.4 °F 51.8 °F 88% 30.20 in 10.0 mi Calm Calm - N/A   Unknown
9:55 AM 59.0 °F 51.8 °F 77% 30.20 in 10.0 mi Calm Calm - N/A   Unknown
10:15 AM 59.0 °F 51.8 °F 77% 30.20 in 10.0 mi Calm Calm - N/A   Unknown
11:15 AM 68.0 °F 51.8 °F 56% 30.19 in 10.0 mi South 4.6 mph - N/A   Unknown
11:55 AM 69.8 °F 51.8 °F 53% 30.19 in 10.0 mi SW 3.5 mph - N/A   Unknown
12:15 PM 69.8 °F 51.8 °F 53% 30.19 in 10.0 mi SSW 5.8 mph - N/A   Unknown
12:35 PM 71.6 °F 51.8 °F 50% 30.18 in 10.0 mi South 4.6 mph - N/A   Unknown
12:55 PM 73.4 °F 51.8 °F 47% 30.17 in 10.0 mi Calm Calm - N/A   Unknown
1:15 PM 73.4 °F 50.0 °F 44% 30.16 in 10.0 mi WSW 3.5 mph - N/A   Unknown
1:35 PM 73.4 °F 50.0 °F 44% 30.15 in 10.0 mi SSW 3.5 mph - N/A   Unknown
1:55 PM 75.2 °F 50.0 °F 41% 30.14 in 10.0 mi SSW 6.9 mph - N/A   Unknown
2:15 PM 75.2 °F 50.0 °F 41% 30.13 in 10.0 mi South 5.8 mph - N/A   Unknown
2:35 PM 77.0 °F 48.2 °F 36% 30.13 in 10.0 mi SW 5.8 mph - N/A   Unknown
2:55 PM 77.0 °F 46.4 °F 34% 30.12 in 10.0 mi South 4.6 mph - N/A   Unknown
3:15 PM 77.0 °F 48.2 °F 36% 30.12 in 10.0 mi SSW 4.6 mph - N/A   Unknown
3:35 PM 77.0 °F 50.0 °F 39% 30.11 in 10.0 mi SSW 3.5 mph - N/A   Unknown
3:55 PM 77.0 °F 48.2 °F 36% 30.11 in 10.0 mi South 5.8 mph - N/A   Unknown
4:15 PM 77.0 °F 46.4 °F 34% 30.11 in 10.0 mi Calm Calm - N/A   Unknown
4:55 PM 77.0 °F 48.2 °F 36% 30.11 in 10.0 mi SSE 4.6 mph - N/A   Unknown
5:15 PM 75.2 °F 48.2 °F 38% 30.11 in 10.0 mi SSW 3.5 mph - N/A   Unknown
5:35 PM 73.4 °F 48.2 °F 41% 30.11 in 10.0 mi South 4.6 mph - N/A   Unknown
5:55 PM 71.6 °F 50.0 °F 46% 30.11 in 10.0 mi Calm Calm - N/A   Unknown
6:15 PM 68.0 °F 50.0 °F 52% 30.11 in 10.0 mi Calm Calm - N/A   Unknown
6:35 PM 66.2 °F 50.0 °F 56% 30.11 in 10.0 mi Calm Calm - N/A   Unknown
6:55 PM 64.4 °F 51.8 °F 64% 30.11 in 10.0 mi Calm Calm - N/A   Unknown
7:15 PM 62.6 °F 51.8 °F 68% 30.12 in 10.0 mi Calm Calm - N/A   Unknown
7:35 PM 60.8 °F 51.8 °F 72% 30.12 in 10.0 mi Calm Calm - N/A   Unknown
7:55 PM 60.8 °F 51.8 °F 72% 30.13 in 10.0 mi Calm Calm - N/A   Unknown
8:15 PM 59.0 °F 51.8 °F 77% 30.13 in 10.0 mi Calm Calm - N/A   Unknown
8:35 PM 55.4 °F 51.8 °F 88% 30.13 in 10.0 mi Calm Calm - N/A   Unknown
8:55 PM 55.4 °F 51.8 °F 88% 30.13 in 10.0 mi Calm Calm - N/A   Unknown
9:15 PM 55.4 °F 51.8 °F 88% 30.14 in 10.0 mi Calm Calm - N/A   Unknown
9:35 PM 53.6 °F 51.8 °F 94% 30.15 in 10.0 mi Calm Calm - N/A   Unknown
9:55 PM 53.6 °F 51.8 °F 94% 30.15 in 10.0 mi Calm Calm - N/A   Unknown
10:15 PM 53.6 °F 51.8 °F 94% 30.15 in 10.0 mi Calm Calm - N/A   Unknown
10:35 PM 53.6 °F 53.6 °F 100% 30.15 in 10.0 mi Calm Calm - N/A   Unknown
10:55 PM 53.6 °F 51.8 °F 94% 30.15 in 10.0 mi Calm Calm - N/A   Unknown
11:15 PM 51.8 °F 51.8 °F 100% 30.16 in 10.0 mi Calm Calm - N/A   Unknown
11:35 PM 51.8 °F 51.8 °F 100% 30.16 in 10.0 mi Calm Calm - N/A   Unknown
11:55 PM 51.8 °F 51.8 °F 100% 30.16 in 10.0 mi Calm Calm - N/A   Unknown